Mount Ida, AR

4:54 AM CDT on April 26, 2017 (GMT -0500)
Mount Ida

Weather History for KMWT - August, 2013

Change the Weather History Date:

Tuesday, August 13, 2013

  Actual Average (KHOT) Record (KHOT)
Temperature  
Mean Temperature 75 °F -  
Max Temperature 82 °F 92 °F 106 °F (1980)
Min Temperature 69 °F 68 °F 53 °F (1967)
Cooling Degree Days 10    
Growing Degree Days 25 (Base 50)    
Moisture  
Dew Point 70 °F    
Average Humidity 93    
Maximum Humidity 100    
Minimum Humidity 72    
Precipitation  
Precipitation 1.74 in - - ()
Sea Level Pressure  
Sea Level Pressure 30.00 in    
Wind  
Wind Speed 2 mph (NW)    
Max Wind Speed 10 mph    
Max Gust Speed 21 mph    
Visibility 6 miles    
Events Fog , Rain    
Averages and records for this station are not official NWS values.
T = Trace of Precipitation, MM = Missing Value Source: NWS Daily Summary

Daily Weather History Graph

Daily Weather History Graph

Search for Another Location

Airport or City:

Trip Planner

Search our weather history database for the weather conditions in past years. The results will help you decide how hot, cold, wet, or windy it might be!

Date:

Astronomy

Aug. 13, 2013 Rise Set
Actual Time 6:33 AM CDT 8:03 PM CDT
Civil Twilight 6:07 AM CDT 8:30 PM CDT
Nautical Twilight 5:34 AM CDT 9:02 PM CDT
Astronomical Twilight 5:01 AM CDT 9:36 PM CDT
Moon 1:09 PM CDT (8/13) No Moon Set
Length of Visible Light 14h 23m
Length of Day
13h 30m
Waxing Crescent, 42% of the Moon is Illuminated
Aug 13
Waxing Crescent
Aug 14
First Quarter
Aug 20
Full
Aug 28
Last Quarter
Sep 5
New

Hourly Weather History & Observations

Time (CDT) Temp. Heat Index Dew Point Humidity Pressure Visibility Wind Dir Wind Speed Gust Speed Precip Events Conditions
12:53 AM 72.0 °F - 71.1 °F 97% 29.96 in 8.0 mi Variable 4.6 mph - N/A   Overcast
1:53 AM 72.0 °F - 70.0 °F 93% 29.95 in 10.0 mi Calm Calm - N/A   Mostly Cloudy
2:53 AM 71.1 °F - 70.0 °F 96% 29.94 in 8.0 mi Calm Calm - 0.00 in   Partly Cloudy
3:53 AM 71.1 °F - 70.0 °F 96% 29.93 in 6.0 mi Calm Calm - N/A   Partly Cloudy
4:12 AM 71.6 °F - 69.8 °F 94% 29.98 in 2.5 mi Calm Calm - N/A   Mostly Cloudy
4:17 AM 71.6 °F - 69.8 °F 94% 29.97 in 5.0 mi Calm Calm - N/A   Mostly Cloudy
4:34 AM 71.6 °F - 69.8 °F 94% 29.97 in 6.0 mi Calm Calm - N/A   Overcast
4:53 AM 71.1 °F - 70.0 °F 96% 29.95 in 6.0 mi Calm Calm - N/A   Overcast
5:00 AM 71.6 °F - 69.8 °F 94% 29.98 in 6.0 mi Calm Calm - N/A   Overcast
5:07 AM 71.6 °F - 69.8 °F 94% 29.99 in 5.0 mi NW 3.5 mph - N/A   Overcast
5:14 AM 71.6 °F - 69.8 °F 94% 30.01 in 2.5 mi NNW 10.4 mph 20.7 mph 0.01 in Rain Heavy Rain
5:26 AM 71.6 °F - 69.8 °F 94% 30.02 in 3.0 mi Variable 5.8 mph - 0.08 in Rain Light Rain
5:34 AM 71.6 °F - 69.8 °F 94% 30.02 in 3.0 mi NNW 8.1 mph - 0.09 in Rain Rain
5:53 AM 71.1 °F - 70.0 °F 96% 30.00 in 1.5 mi NW 4.6 mph - 0.13 in Rain Heavy Rain
6:32 AM 69.8 °F - 69.8 °F 100% 30.02 in 3.0 mi Calm Calm - 0.42 in Rain Rain
6:53 AM 70.0 °F - 70.0 °F 100% 29.99 in 5.0 mi Calm Calm - 0.48 in Rain Light Rain
7:12 AM 71.6 °F - 69.8 °F 94% 30.01 in 2.5 mi Calm Calm - 0.06 in Rain Heavy Rain
7:21 AM 71.6 °F - 69.8 °F 94% 30.02 in 5.0 mi Calm Calm - 0.07 in Rain Light Rain
7:35 AM 71.6 °F - 69.8 °F 94% 30.01 in 2.5 mi Calm Calm - 0.10 in Rain Light Rain
7:43 AM 71.6 °F - 69.8 °F 94% 30.01 in 6.0 mi Calm Calm - 0.10 in Rain Light Rain
7:53 AM 71.1 °F - 70.0 °F 96% 29.99 in 9.0 mi Calm Calm - 0.10 in   Overcast
8:19 AM 71.6 °F - 69.8 °F 94% 30.04 in 1.8 mi NNW 4.6 mph - 0.01 in Rain Rain
8:31 AM 71.6 °F - 69.8 °F 94% 30.05 in 1.2 mi NW 5.8 mph - 0.09 in Rain Heavy Rain
8:53 AM 70.0 °F - 69.1 °F 97% 30.03 in 0.8 mi Variable 5.8 mph - 0.32 in Rain Heavy Rain
9:05 AM 69.8 °F - 69.8 °F 100% 30.05 in 1.2 mi Calm Calm - 0.08 in Rain Heavy Rain
9:18 AM 69.8 °F - 69.8 °F 100% 30.03 in 3.0 mi SE 3.5 mph - 0.13 in Rain Rain
9:32 AM 69.8 °F - 69.8 °F 100% 30.02 in 1.8 mi SE 4.6 mph - 0.16 in Rain Heavy Rain
9:38 AM 69.8 °F - 69.8 °F 100% 30.02 in 2.0 mi Calm Calm - 0.20 in Rain Light Rain
9:53 AM 71.1 °F - 70.0 °F 96% 30.00 in 10.0 mi Calm Calm - 0.20 in   Mostly Cloudy
10:05 AM 71.6 °F - 69.8 °F 94% 30.03 in 10.0 mi Calm Calm - N/A   Mostly Cloudy
10:14 AM 71.6 °F - 69.8 °F 94% 30.04 in 10.0 mi Calm Calm - 0.00 in Rain Light Rain
10:40 AM 71.6 °F - 69.8 °F 94% 30.07 in 2.0 mi Variable 3.5 mph - 0.04 in Rain Rain
10:53 AM 71.1 °F - 70.0 °F 96% 30.05 in 1.0 mi Calm Calm - 0.08 in Rain Heavy Rain
11:01 AM 71.6 °F - 69.8 °F 94% 30.07 in 0.5 mi Calm Calm - 0.10 in Fog , Rain Heavy Rain
11:15 AM 71.6 °F - 69.8 °F 94% 30.05 in 1.5 mi Calm Calm - 0.19 in Rain Rain
11:36 AM 71.6 °F - 69.8 °F 94% 30.06 in 3.0 mi WNW 3.5 mph - 0.26 in Rain Light Rain
11:53 AM 71.1 °F - 70.0 °F 96% 30.04 in 5.0 mi Calm Calm - 0.28 in Rain Light Rain
12:09 PM 71.6 °F - 69.8 °F 94% 30.05 in 1.8 mi Calm Calm - 0.02 in Rain Rain
12:21 PM 71.6 °F - 69.8 °F 94% 30.04 in 3.0 mi Calm Calm - 0.09 in Rain Light Rain
12:43 PM 71.6 °F - 69.8 °F 94% 30.04 in 10.0 mi Calm Calm - 0.11 in Rain Light Rain
12:53 PM 73.0 °F - 70.0 °F 90% 30.01 in 10.0 mi Calm Calm - 0.11 in Rain Light Rain
1:53 PM 73.0 °F - 71.1 °F 93% 29.98 in 6.0 mi Calm Calm - 0.01 in Rain Light Rain
2:07 PM 73.4 °F - 71.6 °F 94% 29.99 in 10.0 mi Calm Calm - 0.00 in   Overcast
2:33 PM 77.0 °F - 71.6 °F 83% 29.97 in 10.0 mi Calm Calm - 0.00 in   Scattered Clouds
2:53 PM 78.1 °F - 72.0 °F 81% 29.95 in 10.0 mi Variable 5.8 mph - 0.00 in   Partly Cloudy
3:18 PM 78.8 °F - 71.6 °F 78% 29.97 in 10.0 mi Calm Calm - N/A   Mostly Cloudy
3:35 PM 78.8 °F - 71.6 °F 78% 29.96 in 10.0 mi West 4.6 mph - N/A   Scattered Clouds
3:53 PM 81.0 °F 85.2 °F 72.0 °F 74% 29.93 in 10.0 mi Variable 3.5 mph - N/A   Partly Cloudy
4:53 PM 80.1 °F 83.8 °F 72.0 °F 76% 29.94 in 10.0 mi Calm Calm - N/A   Mostly Cloudy
5:53 PM 81.0 °F 84.9 °F 71.1 °F 72% 29.92 in 10.0 mi Calm Calm - N/A   Mostly Cloudy
6:53 PM 81.0 °F 85.2 °F 72.0 °F 74% 29.92 in 10.0 mi NW 3.5 mph - N/A   Scattered Clouds
7:53 PM 75.0 °F - 73.0 °F 94% 29.94 in 10.0 mi Calm Calm - N/A   Scattered Clouds
8:53 PM 73.9 °F - 73.0 °F 97% 29.96 in 10.0 mi Calm Calm - N/A   Mostly Cloudy
9:11 PM 75.2 °F - 69.8 °F 83% 30.00 in 10.0 mi Variable 3.5 mph - N/A   Overcast
9:20 PM 73.4 °F - 69.8 °F 88% 30.01 in 7.0 mi Variable 4.6 mph - 0.00 in Rain Light Rain
9:53 PM 72.0 °F - 71.1 °F 97% 30.00 in 9.0 mi Calm Calm - 0.03 in   Overcast
10:03 PM 71.6 °F - 71.6 °F 100% 30.02 in 8.0 mi Calm Calm - N/A   Overcast
10:23 PM 71.6 °F - 69.8 °F 94% 30.01 in 10.0 mi Calm Calm - N/A   Overcast
10:39 PM 71.6 °F - 69.8 °F 94% 30.00 in 7.0 mi Calm Calm - N/A   Mostly Cloudy
10:53 PM 71.1 °F - 70.0 °F 96% 29.97 in 5.0 mi Calm Calm - N/A   Mostly Cloudy
11:01 PM 71.6 °F - 69.8 °F 94% 30.00 in 1.8 mi Calm Calm - N/A   Mostly Cloudy
11:13 PM 71.6 °F - 69.8 °F 94% 30.00 in 3.0 mi Calm Calm - N/A   Scattered Clouds
11:35 PM 71.6 °F - 69.8 °F 94% 30.00 in 2.0 mi Calm Calm - N/A   Mostly Cloudy
11:46 PM 71.6 °F - 69.8 °F 94% 30.00 in 4.0 mi Calm Calm - N/A   Overcast
11:53 PM 71.1 °F - 70.0 °F 96% 29.97 in 2.5 mi Calm Calm - N/A   Overcast